Theta_e
343 343 342 342 343 344 344 344 344 345 345 343 344 346 347 348 347 348 349 348 345 345 345 345 345 345 346 346 347 347 345 346 346 346 347 347 348 344 339 338 337 336 335 333 334 338 339 340 341 340 339 340 340 340 341 341 341 340 338 339 339 339 339 339 337 334 333 335 336 336 339 341 340 340 339 339 339 339 340 340 341 341 341 340 340
343 343 344 344 344 344 344 345 345 344 344 344 344 344 344 345 344 345 347 348 346 346 347 347 346 345 346 346 346 346 344 345 346 346 346 345 348 347 340 338 337 336 336 334 333 336 338 339 341 341 340 339 339 340 341 341 341 340 338 340 340 339 339 338 337 335 334 334 336 338 340 340 339 339 339 339 339 339 340 340 341 341 341 341 341
343 343 344 345 344 344 345 345 345 345 344 345 344 345 345 344 344 344 344 344 344 346 348 347 346 345 346 346 346 345 344 345 346 345 345 345 347 348 343 339 337 336 337 336 333 333 336 338 340 341 340 339 339 339 341 340 341 340 339 341 341 339 338 337 336 335 334 335 337 339 340 339 339 339 339 339 339 339 340 340 340 341 341 341 341
344 344 344 345 345 345 346 346 346 345 345 345 345 345 345 345 346 346 345 344 344 345 345 343 344 346 346 346 346 345 345 345 345 345 345 345 346 349 346 342 338 336 337 337 335 333 333 336 339 340 339 339 339 339 341 340 340 341 340 341 341 339 338 336 334 333 332 334 338 340 340 339 339 339 339 339 340 340 340 340 340 340 341 341 341
347 346 345 346 346 346 347 347 347 346 345 345 346 346 346 345 345 345 346 347 347 346 344 341 342 345 346 347 346 345 345 344 345 345 345 345 347 348 347 345 342 337 336 337 337 335 331 331 335 339 339 339 339 339 340 340 340 340 339 340 341 339 337 336 334 331 330 334 339 339 338 338 337 337 337 334 333 336 338 340 340 340 341 340 340
348 347 347 346 346 347 348 348 348 346 345 346 347 347 346 345 345 345 345 347 347 347 346 344 344 346 347 346 347 346 346 345 345 345 346 346 347 347 347 347 345 341 338 337 337 337 334 331 331 336 339 339 338 338 340 341 340 340 339 339 341 341 339 338 336 332 331 334 337 337 336 337 337 338 338 332 323 325 333 338 340 340 340 338 338
350 349 348 348 348 348 348 348 349 346 346 347 347 348 347 346 345 345 345 346 347 347 347 347 347 347 345 344 346 347 346 346 346 346 346 347 347 347 347 346 346 345 344 342 338 338 337 335 332 332 335 338 338 337 339 341 339 339 340 339 340 341 341 340 338 336 335 336 337 337 338 339 339 339 341 336 323 321 331 338 340 340 339 338 338
350 350 350 350 349 349 349 349 349 348 346 347 348 348 347 346 346 346 345 346 348 348 347 348 348 346 343 343 346 348 348 348 347 348 347 348 347 347 348 347 346 346 346 346 344 340 337 337 336 333 331 333 335 336 337 339 339 339 341 340 339 341 341 341 341 339 339 339 339 340 340 340 340 340 342 340 331 326 332 337 338 339 338 338 339
348 350 350 350 349 349 349 349 349 348 348 348 349 348 347 346 347 346 346 347 348 349 349 349 349 347 346 346 347 348 348 349 349 349 349 349 348 347 348 347 346 346 345 347 348 344 339 338 338 336 333 330 330 332 333 336 338 338 339 340 339 339 341 342 342 341 340 340 340 340 341 341 341 341 341 342 340 336 334 334 333 333 332 332 333
348 348 349 349 349 350 349 348 349 348 349 350 350 348 348 347 347 347 347 346 347 348 349 349 348 348 348 348 348 349 349 349 350 350 349 349 348 348 349 347 346 346 346 347 348 347 344 340 338 338 337 333 329 327 328 332 337 338 338 339 339 339 340 341 343 342 340 339 340 340 340 340 341 341 342 342 342 341 340 339 337 336 334 333 331
349 348 348 348 348 349 349 349 349 349 349 350 349 348 348 348 347 347 347 347 347 348 348 349 348 348 349 349 349 349 349 350 350 350 349 348 347 347 348 348 346 347 347 347 348 348 347 343 341 339 338 337 333 328 324 327 332 336 338 337 337 338 339 340 341 340 339 338 339 339 340 340 340 341 342 342 341 342 342 342 341 341 341 340 339
350 348 347 347 347 348 349 350 350 349 349 350 349 348 347 348 347 347 347 347 348 348 348 348 349 349 349 350 350 350 350 350 350 350 349 348 348 347 348 348 348 348 347 347 347 348 347 345 342 342 341 339 337 333 328 325 325 329 334 335 334 334 334 335 335 333 333 333 334 335 335 336 339 341 342 342 342 342 342 341 341 341 342 342 342
351 350 349 349 350 350 349 350 350 349 350 350 349 349 348 348 348 348 348 348 348 348 348 348 349 350 350 351 351 350 350 351 350 350 349 349 348 348 349 349 349 348 347 347 347 348 348 347 343 342 343 341 338 337 334 329 325 324 327 329 330 329 327 327 327 326 326 327 327 328 328 329 331 334 337 339 339 340 341 341 341 341 340 341 341
351 351 351 351 351 350 350 350 350 350 351 350 349 349 349 349 348 349 349 348 348 348 348 348 349 349 350 350 351 351 351 351 350 349 348 349 348 347 348 349 349 349 348 347 348 348 348 348 346 344 343 342 341 339 336 334 330 326 324 324 326 326 325 324 324 324 325 325 325 326 326 326 326 327 329 331 332 334 337 338 338 338 338 339 341
350 350 350 350 350 350 350 350 349 350 350 349 348 349 349 349 349 349 349 348 348 349 348 347 348 349 349 350 351 351 351 351 350 349 349 349 348 348 347 348 349 348 348 348 348 348 348 349 349 346 343 342 342 340 337 335 334 330 327 324 324 324 325 325 325 325 325 324 325 326 326 326 327 329 329 330 331 330 330 331 332 333 334 336 338
350 350 350 350 350 350 350 350 349 349 349 349 348 349 349 348 348 349 349 348 348 349 348 347 348 349 349 350 350 350 351 350 349 349 348 348 347 347 347 348 348 347 347 348 348 349 348 349 349 348 345 343 342 341 339 337 335 334 332 329 326 324 324 324 325 325 325 325 325 325 325 326 328 331 330 331 333 334 333 331 330 330 331 333 334
351 351 350 349 350 350 350 350 350 349 348 348 349 349 348 348 348 349 349 349 349 348 347 348 348 348 349 349 348 349 349 348 349 349 348 347 347 347 348 347 347 346 347 348 348 348 349 349 349 349 346 344 344 342 342 341 339 335 335 334 331 328 325 324 324 324 324 325 325 325 325 326 328 330 330 329 331 336 339 339 337 333 330 330 332
351 351 351 350 350 351 350 350 350 350 349 349 350 349 349 349 350 350 349 348 348 348 347 348 349 349 349 349 350 351 350 348 348 349 347 346 346 347 348 347 346 346 347 348 348 348 349 349 349 350 348 347 346 344 343 344 342 338 336 335 334 333 330 327 325 324 324 324 324 325 324 324 325 325 327 327 327 330 335 339 341 339 335 333 332
352 351 351 351 350 350 350 350 350 350 350 349 350 350 350 350 350 351 350 348 348 348 347 348 349 349 349 349 350 351 352 351 349 347 347 346 345 346 346 346 346 346 347 348 347 347 349 349 349 350 350 348 347 346 346 345 343 340 337 336 335 335 335 333 331 328 325 324 323 323 323 322 323 322 324 326 327 329 332 336 339 340 339 338 336
351 351 351 350 350 349 349 349 349 349 349 348 349 350 349 350 350 351 350 349 348 348 348 348 348 349 349 349 350 350 351 352 350 347 346 346 345 345 345 345 346 346 346 347 347 347 348 349 349 349 350 350 348 348 348 347 346 343 340 338 337 337 336 336 335 332 329 327 325 324 322 322 323 324 326 328 332 333 335 337 337 338 339 340 340
349 349 350 350 349 349 348 348 349 350 350 349 349 349 348 349 351 350 350 349 348 349 348 347 347 348 348 349 350 350 350 351 350 350 348 346 345 345 345 346 345 345 346 346 346 347 347 348 349 349 350 351 350 349 348 349 348 346 344 342 341 340 338 337 336 335 334 332 330 328 327 327 328 330 331 333 335 336 336 337 337 337 338 339 340
348 347 348 349 348 348 348 347 348 350 350 350 350 351 349 349 351 350 349 349 349 349 348 348 347 347 348 349 349 350 350 350 350 350 349 348 346 344 344 345 346 346 346 346 346 347 347 348 348 349 349 350 352 351 350 349 348 348 347 345 344 343 341 340 338 336 335 334 333 332 332 332 333 334 335 336 336 337 337 337 337 337 337 338 338
347 346 346 347 347 347 348 347 347 348 348 348 350 351 351 351 351 351 349 349 350 350 349 348 347 347 348 349 349 350 350 350 350 350 349 349 348 346 345 344 345 346 346 346 346 346 347 347 347 348 349 350 351 353 352 350 348 347 348 347 347 346 344 343 341 338 337 335 334 334 334 334 335 335 336 336 337 337 338 338 337 337 337 337 337
347 347 347 347 347 346 346 347 347 347 346 345 347 349 350 351 350 350 349 348 348 350 349 348 348 347 348 349 349 350 350 350 350 350 349 349 348 347 347 346 346 346 345 346 347 346 347 347 347 348 349 349 350 352 354 352 349 347 346 347 348 347 347 346 345 344 342 339 337 336 335 336 336 336 337 337 338 338 338 338 338 338 337 337 337
348 348 348 347 346 345 347 347 346 346 345 345 346 347 349 350 349 348 349 349 348 349 350 349 349 348 347 349 349 349 349 350 350 350 350 349 349 348 347 346 347 346 346 347 349 348 347 347 348 348 348 349 349 351 353 354 352 349 346 347 348 348 348 348 348 347 346 344 343 341 340 339 338 339 339 339 339 339 339 338 338 338 337 337 337
348 347 347 346 344 343 345 346 346 346 346 345 346 347 348 350 351 349 349 350 348 348 349 348 349 349 348 348 349 349 349 350 350 350 350 350 349 349 349 348 348 349 348 348 349 349 349 348 348 348 348 349 349 351 352 353 353 351 347 346 347 348 348 348 348 347 347 347 347 347 346 345 344 342 341 341 341 341 340 339 338 338 337 337 337
347 347 346 344 343 343 344 346 346 346 346 346 346 347 348 349 350 349 349 349 348 348 349 349 349 349 348 348 349 349 350 350 351 350 350 350 349 349 349 349 350 350 349 349 350 350 350 349 349 348 348 349 350 350 352 352 352 350 347 346 347 348 347 348 348 347 347 348 348 349 348 348 347 345 343 342 342 341 341 340 339 338 337 337 337
348 347 346 344 343 343 344 346 347 347 347 346 346 347 349 350 350 348 348 348 348 348 349 350 350 349 348 348 348 349 350 351 351 350 349 350 350 349 349 349 351 350 349 350 351 351 350 350 349 349 349 349 350 351 351 351 351 350 347 346 347 348 347 347 348 348 348 348 348 348 348 349 348 346 344 342 342 342 341 340 340 339 338 338 337
348 348 347 346 345 343 344 346 347 347 347 346 346 347 348 350 349 347 347 348 348 347 348 350 350 348 348 349 349 348 349 351 351 351 350 350 350 350 350 350 351 352 351 350 350 351 351 350 349 350 350 350 350 351 351 350 350 350 348 346 347 348 347 347 347 348 348 347 347 348 348 348 348 348 346 344 343 343 342 341 339 337 336 336 336
345 347 347 346 346 345 346 347 347 347 347 346 346 346 347 348 347 346 346 347 348 347 347 349 350 348 348 350 349 347 348 350 351 352 351 350 351 351 350 351 351 352 353 352 352 352 352 351 349 348 350 351 350 350 350 351 350 349 349 349 349 350 349 346 346 347 347 347 347 347 348 348 348 348 347 346 345 344 343 341 339 337 336 335 335
338 342 345 346 347 347 346 347 347 347 348 347 347 346 346 347 347 346 346 346 347 348 348 349 349 349 349 350 349 348 348 349 350 351 351 350 351 351 351 351 352 352 353 354 354 353 352 351 350 349 350 350 350 349 350 351 351 349 349 350 351 352 349 346 346 347 347 347 347 347 348 348 348 348 346 345 345 344 342 340 340 340 339 338 336
329 332 337 341 344 346 347 347 347 348 349 349 348 347 347 347 346 346 346 346 346 348 349 350 350 350 350 350 350 349 349 350 349 350 351 351 350 351 351 351 351 352 353 354 354 353 352 351 350 349 349 349 349 350 351 351 351 350 349 350 351 351 349 347 346 346 346 348 347 347 348 348 348 348 347 345 343 342 342 342 343 343 341 340 337
325 327 329 332 336 341 345 346 347 347 348 349 349 348 347 347 347 347 347 347 346 347 349 350 351 351 350 350 349 348 348 349 350 350 351 350 349 350 351 351 351 352 353 354 354 353 352 351 350 349 349 350 350 351 351 351 351 351 350 349 350 351 351 350 349 347 346 347 347 347 347 347 348 347 347 346 344 344 345 345 346 345 344 342 339
323 325 325 325 325 331 338 341 344 346 346 347 348 348 348 348 347 347 348 348 348 347 348 349 350 351 350 349 348 347 347 348 348 349 350 349 348 349 350 351 351 351 352 353 353 353 353 351 351 351 350 350 350 351 351 351 351 352 352 351 349 350 351 351 352 350 348 346 346 347 347 347 347 347 348 347 346 346 347 348 348 348 347 345 342
324 324 323 322 323 326 331 335 338 342 345 346 347 348 348 349 348 348 348 349 349 348 349 350 350 350 349 348 347 347 347 347 347 347 349 348 347 347 349 350 351 351 351 352 353 354 353 351 352 352 352 351 351 351 351 351 351 352 353 352 350 351 352 352 352 352 351 349 346 346 346 346 347 347 347 347 346 346 347 348 348 349 348 347 343
324 323 323 322 323 324 327 329 331 334 338 342 345 347 348 349 349 349 348 348 348 349 349 350 350 350 349 347 347 348 347 347 348 348 348 348 346 347 348 349 350 350 350 350 352 354 353 352 352 352 352 352 352 350 349 349 351 352 353 351 349 351 351 351 352 352 351 351 349 346 346 346 346 347 347 347 347 347 348 348 348 348 347 345 343
324 323 323 323 323 325 325 326 326 327 331 336 341 344 346 347 349 349 348 348 349 349 349 349 350 350 349 346 346 347 347 347 348 349 350 349 348 346 347 347 346 348 350 350 351 353 353 353 352 352 352 353 352 349 347 349 350 351 352 351 349 349 349 350 351 350 350 351 350 348 346 346 346 346 346 347 348 347 348 348 347 347 345 344 344
328 327 325 324 325 327 327 327 326 326 328 332 336 340 343 345 346 348 348 348 348 349 349 348 348 349 349 348 347 347 348 347 348 350 351 351 348 346 346 346 346 348 350 351 352 352 353 353 353 352 351 352 353 351 347 347 348 348 350 351 350 348 348 349 351 350 350 351 350 348 347 346 346 346 346 347 348 348 348 348 348 348 346 345 345
328 328 327 327 327 328 328 328 328 328 329 330 331 335 340 344 346 348 347 347 346 347 348 347 346 347 349 349 349 349 349 348 348 350 350 348 347 346 345 345 346 347 348 349 351 352 353 353 352 352 351 351 354 354 349 345 346 347 348 350 353 352 348 348 350 351 351 351 351 350 348 346 346 346 347 347 347 348 348 348 348 348 348 348 347
326 327 328 329 328 328 329 329 329 329 329 330 331 332 336 341 344 345 346 347 347 346 347 346 345 346 346 347 350 350 350 349 348 349 348 347 346 347 346 345 346 347 346 347 350 351 351 352 352 352 352 351 353 354 352 348 346 346 346 348 352 353 350 351 351 351 351 351 351 352 350 348 346 346 346 347 348 348 348 348 349 348 348 348 348
327 327 328 329 328 327 327 328 329 329 328 331 333 331 331 334 336 337 339 343 345 345 345 346 346 347 346 346 348 350 349 349 348 348 347 347 347 348 347 347 347 348 349 349 349 349 349 351 352 352 351 351 353 354 355 351 345 345 345 346 349 349 349 351 351 349 349 349 350 351 352 352 351 349 348 346 346 347 347 348 348 348 348 347 347
327 326 326 327 329 327 324 325 327 328 330 333 333 330 328 328 329 331 334 338 341 342 344 346 347 347 347 346 347 347 346 346 346 346 347 347 347 347 347 348 348 348 350 350 349 348 348 348 348 351 352 351 350 352 354 352 347 346 345 345 348 348 349 350 350 349 350 350 350 350 352 353 353 354 354 350 348 348 347 347 347 347 347 346 346
325 325 324 326 328 326 323 323 324 326 329 332 331 328 328 327 328 330 332 334 337 338 341 344 345 346 346 345 345 346 346 345 344 344 346 346 346 346 346 347 348 347 349 349 349 349 349 347 347 350 352 350 348 349 351 351 350 349 348 348 350 350 349 350 349 349 350 352 353 351 349 350 351 353 356 355 351 350 350 349 348 347 347 347 347
324 323 324 325 326 326 324 323 323 324 326 328 328 327 328 328 328 329 330 331 334 336 338 339 342 345 345 344 344 345 347 346 345 345 347 346 347 347 346 346 347 347 347 348 348 348 347 347 348 350 349 348 347 349 349 349 349 349 349 353 354 351 350 349 347 346 348 350 353 351 348 348 349 350 352 350 348 348 350 351 352 350 348 347 347
324 323 323 324 325 326 326 326 325 325 325 327 327 327 327 327 328 329 329 329 331 333 335 336 340 343 344 344 345 345 344 344 345 346 346 345 346 347 346 344 344 344 345 346 346 346 346 347 348 347 346 346 346 346 346 347 348 349 351 355 356 352 349 348 346 345 346 349 351 350 347 345 346 349 349 346 346 346 346 349 352 351 349 346 345
326 326 325 325 327 328 328 328 328 326 327 328 328 326 326 326 328 328 328 329 329 330 332 335 339 341 340 341 344 345 345 346 345 345 345 344 346 347 346 344 344 344 343 344 344 344 345 346 346 345 344 344 344 344 343 344 346 348 350 352 353 352 350 349 348 347 346 347 348 347 345 341 343 349 350 346 345 347 346 348 350 351 350 345 342
327 327 327 326 328 329 329 330 329 328 328 329 328 326 325 326 327 328 328 329 330 330 331 333 337 338 337 338 341 342 343 344 345 345 345 345 345 346 345 345 345 345 344 343 342 342 343 344 345 345 344 343 343 342 342 342 343 345 346 347 348 349 348 348 348 347 346 346 345 345 344 341 341 347 351 349 348 349 348 347 348 351 351 347 343
327 327 327 327 327 328 330 329 329 329 329 329 328 326 325 325 326 327 328 330 331 331 332 333 335 336 337 337 338 340 340 339 341 342 343 343 344 344 344 345 344 344 344 342 342 342 342 343 344 344 344 343 343 342 341 341 342 343 344 345 346 346 346 346 346 346 345 345 344 344 343 341 340 343 348 350 349 349 349 348 348 350 352 351 347
326 326 327 328 328 328 329 329 329 330 330 329 329 327 326 325 325 326 328 330 331 331 332 333 334 335 336 336 336 337 337 337 338 339 340 342 343 343 344 344 344 344 343 343 343 343 343 343 343 343 343 343 343 343 343 342 342 343 344 345 345 345 346 346 346 346 346 344 343 343 342 342 341 342 346 349 349 348 350 351 350 350 352 353 350
326 326 327 328 329 329 329 329 329 329 329 329 329 328 328 327 326 327 328 329 330 331 332 333 333 333 334 334 334 334 334 336 338 337 337 339 341 343 345 345 345 344 344 345 346 346 345 344 343 343 343 343 344 344 344 344 344 344 345 345 344 343 345 346 346 347 347 345 344 346 347 346 343 342 346 349 349 349 349 351 352 352 353 354 352
326 326 327 328 328 329 329 329 329 329 329 330 330 330 329 328 327 327 328 328 329 331 332 333 332 332 334 334 333 333 333 334 335 336 336 337 338 340 344 346 344 344 345 346 347 346 346 345 344 344 343 342 343 344 344 344 345 345 346 346 344 344 346 347 346 346 347 346 345 346 348 346 343 345 348 348 347 347 345 346 348 350 352 353 352
Wind_Speed
16 17 18 18 18 19 19 19 19 19 20 19 17 16 15 15 16 14 11 12 12 11 11 11 9 9 9 9 8 8 9 9 7 7 7 6 7 8 8 7 6 5 5 5 7 8 8 8 8 7 6 6 6 5 5 5 6 6 7 9 10 11 11 10 9 9 11 13 12 11 11 11 10 10 10 10 10 10 10 10 11 11 11 11 10
18 19 20 20 20 20 20 19 20 20 20 20 20 19 18 18 18 16 13 12 12 11 11 11 10 10 10 9 9 10 12 10 7 7 8 7 8 9 9 8 7 6 6 5 6 8 8 9 9 8 7 7 6 6 5 5 6 5 6 8 10 10 10 10 10 10 10 12 12 11 11 11 10 10 10 11 10 10 10 10 11 11 10 10 10
20 21 23 22 21 21 21 21 20 20 20 20 20 20 20 21 21 19 17 16 14 12 12 12 11 11 12 11 10 10 13 11 7 8 9 8 8 9 9 9 8 7 7 6 6 7 8 9 9 8 8 8 7 6 6 5 6 5 6 8 9 10 9 9 10 10 11 12 12 11 11 11 10 10 10 11 10 10 10 10 10 10 10 10 10
21 22 24 23 22 22 21 21 21 20 20 20 19 19 20 21 21 20 19 18 19 17 16 15 13 12 13 12 10 10 14 13 8 9 9 9 10 10 10 10 9 8 8 7 7 7 7 9 10 9 9 8 8 7 6 6 6 6 7 9 10 10 9 8 9 10 12 14 12 11 11 10 10 9 10 10 11 12 11 10 10 10 10 10 10
22 22 23 23 22 22 21 20 21 21 20 20 19 18 20 21 20 19 19 18 20 19 19 20 16 14 15 14 12 12 14 13 8 8 10 10 11 11 10 10 10 9 9 9 8 7 7 8 9 10 10 9 9 8 7 6 6 6 6 9 10 10 9 7 8 10 13 14 12 11 10 10 9 9 8 9 12 14 13 12 10 10 10 9 10
22 22 23 23 21 20 20 19 19 19 19 19 18 19 20 20 19 19 19 18 19 20 20 21 17 15 17 16 14 13 13 12 10 11 12 11 11 11 11 11 10 11 11 10 9 8 7 7 8 10 11 10 10 10 9 8 7 7 6 8 11 11 9 8 8 10 13 13 12 11 10 10 10 9 7 6 10 13 14 13 11 10 10 10 10
21 21 22 22 21 20 19 19 18 18 18 18 18 18 19 19 19 19 19 19 19 21 20 20 19 20 21 19 15 13 13 14 13 13 13 12 12 12 12 12 11 11 11 10 10 9 8 8 8 9 10 11 11 11 11 9 8 8 7 8 11 12 11 10 9 10 12 12 11 11 11 10 10 9 7 5 6 11 13 12 11 10 10 10 10
19 20 21 21 20 19 18 18 17 18 18 18 18 19 19 19 19 19 20 19 18 19 19 19 21 22 22 20 15 13 14 15 15 15 13 13 13 12 13 13 12 13 12 11 11 11 9 9 8 8 9 10 11 11 12 11 9 9 9 8 10 12 12 11 11 11 11 11 11 11 11 10 10 9 8 6 6 9 11 11 10 10 10 10 10
19 19 20 21 20 19 18 17 17 18 18 18 18 18 19 20 20 21 20 19 17 17 16 17 19 18 18 17 14 14 16 16 15 15 14 14 14 13 13 13 14 14 13 11 12 11 11 11 10 9 9 9 10 11 12 12 11 10 10 9 10 11 12 12 12 11 11 11 11 11 11 11 10 9 9 8 7 8 9 9 9 9 9 9 10
19 18 20 21 20 20 19 17 17 17 17 17 18 18 18 19 20 19 18 18 18 16 16 16 16 14 15 16 15 16 16 16 16 16 16 15 15 14 14 14 14 15 14 12 12 12 12 12 11 11 10 9 9 10 11 12 12 11 11 11 10 11 12 12 12 12 11 12 12 11 11 11 11 10 9 9 8 8 8 8 8 8 8 8 8
18 18 19 20 20 21 20 18 18 17 16 15 17 18 18 19 19 17 16 17 16 16 15 15 14 14 15 16 16 17 16 16 16 16 16 16 15 16 15 14 15 15 15 14 13 12 12 12 12 13 12 10 9 10 10 11 12 12 12 12 11 11 12 12 12 12 12 12 12 11 11 11 11 11 10 9 9 9 9 9 8 8 8 8 7
16 17 18 19 20 21 20 18 18 17 16 15 16 16 18 18 18 16 15 15 15 15 15 14 14 15 16 16 17 17 16 17 16 16 16 16 16 16 16 16 16 16 15 15 13 13 13 13 12 13 13 12 11 10 10 11 11 12 13 13 12 12 12 12 12 11 11 11 11 11 10 10 10 11 11 10 9 10 10 10 10 9 9 9 9
15 16 17 17 18 18 18 18 17 17 16 16 16 15 16 15 15 15 15 15 14 14 14 14 14 16 16 17 17 17 17 18 18 17 16 16 17 17 17 16 16 17 16 15 14 13 13 13 13 14 14 13 12 11 10 11 11 12 12 13 13 13 12 12 12 12 12 11 10 10 9 9 9 10 10 10 9 10 11 11 10 10 10 11 11
14 15 15 16 16 16 16 16 16 15 15 16 16 14 14 13 14 14 15 15 13 13 14 15 16 17 16 15 16 17 18 18 19 18 18 17 17 18 18 17 17 17 16 15 15 14 14 14 14 15 14 13 13 13 12 12 12 12 13 13 14 14 14 14 14 13 12 12 11 10 9 9 9 9 9 10 10 10 10 10 10 10 10 11 12
14 14 14 14 14 15 14 14 15 15 14 14 14 14 14 15 14 14 14 14 13 14 15 15 16 16 15 14 14 14 16 18 19 19 19 19 18 19 19 19 18 17 16 16 16 15 14 15 15 15 15 14 14 14 14 13 13 13 13 14 15 15 16 16 15 15 14 13 12 11 10 9 9 9 9 9 10 10 10 10 10 10 10 10 11
14 13 13 13 12 13 14 13 14 15 15 14 13 14 15 15 15 14 14 14 14 15 16 17 18 16 15 15 14 14 14 16 18 19 20 20 19 19 19 19 19 18 17 16 16 15 15 15 15 15 15 15 15 15 16 16 15 15 14 15 15 16 17 17 17 17 16 15 15 13 12 11 10 10 10 10 11 10 10 10 10 10 10 10 10
14 13 13 13 12 12 14 14 14 15 15 14 13 14 15 15 14 15 16 15 15 16 16 17 19 19 17 14 12 13 13 13 15 17 19 20 20 20 20 19 19 19 18 17 16 15 15 16 16 16 16 16 16 16 16 17 17 17 16 16 16 16 17 17 18 18 18 17 16 15 14 13 12 12 11 12 12 13 12 10 10 10 10 10 10
14 14 13 13 12 12 12 13 14 14 13 13 13 13 14 14 14 15 17 16 16 17 17 18 20 20 20 17 12 10 10 10 13 14 17 19 20 21 21 20 20 19 18 17 16 15 15 15 16 16 16 16 16 16 17 17 18 18 17 17 17 17 17 17 18 18 19 19 18 17 16 15 14 13 13 13 13 13 13 12 11 10 11 11 10
13 13 12 13 13 12 12 12 13 13 13 13 13 13 14 14 14 15 15 15 16 18 19 20 21 19 19 19 17 14 11 10 12 12 15 18 19 20 21 21 21 20 19 18 16 16 16 16 16 16 16 16 16 16 17 17 17 18 18 17 18 18 18 17 17 18 18 19 19 18 18 16 16 15 15 14 13 13 12 12 12 11 11 12 11
12 11 11 12 13 13 13 13 13 13 14 14 14 15 15 13 13 14 14 15 17 19 18 20 22 20 18 19 20 19 16 13 12 12 13 17 18 19 20 21 21 20 19 18 17 17 17 17 16 16 17 17 17 17 16 16 16 17 18 18 18 19 19 19 19 18 18 18 18 18 18 17 16 16 16 15 14 13 13 12 12 12 13 13 13
12 10 10 11 11 12 12 13 13 13 14 14 15 16 16 14 13 13 14 15 17 18 18 19 21 21 19 19 20 19 19 17 14 13 13 15 18 19 19 20 21 21 20 19 18 18 18 17 17 17 17 17 17 17 16 16 17 17 17 18 17 18 19 20 20 20 19 19 18 18 18 17 17 17 16 16 16 15 14 14 13 13 13 14 15
11 10 9 10 10 10 11 12 12 13 14 15 15 16 16 15 14 15 14 15 16 17 18 17 19 20 19 19 19 19 20 19 17 15 14 14 16 18 20 20 21 20 20 19 19 18 18 18 18 18 18 18 18 18 17 18 18 18 18 17 16 17 18 19 20 20 20 20 19 19 19 18 18 18 18 17 17 17 16 15 15 15 15 15 15
9 9 8 8 9 9 10 12 13 14 15 15 16 16 16 15 15 15 15 15 15 16 18 17 18 21 21 19 19 20 21 20 18 17 16 15 15 16 18 20 20 19 19 19 19 19 19 19 19 19 19 18 18 18 18 19 19 19 18 16 16 16 17 18 18 19 20 20 20 20 20 20 19 19 19 19 18 18 18 17 17 17 17 17 17
8 9 9 8 9 9 9 11 13 15 15 16 17 16 16 15 15 15 16 16 16 16 18 18 18 21 23 21 20 21 21 19 18 17 17 16 16 16 16 17 18 18 17 18 19 19 19 19 19 19 19 19 19 18 19 19 19 19 18 17 17 18 18 18 18 18 18 19 20 20 21 21 20 20 20 20 20 19 19 19 19 19 18 18 18
7 8 8 9 9 10 10 12 14 15 15 16 16 16 16 15 15 15 16 17 17 18 19 19 19 21 23 23 22 23 20 18 18 17 17 16 16 16 16 15 16 16 16 16 17 18 19 20 19 19 19 19 19 19 19 19 19 19 19 19 19 19 20 20 19 19 19 18 19 19 20 20 20 21 21 20 20 20 20 20 20 20 20 20 19
8 8 9 11 11 11 11 11 13 14 15 15 15 16 16 15 15 16 16 17 17 18 19 19 20 21 22 23 23 21 20 19 18 18 17 17 17 16 16 15 15 15 15 16 16 16 17 18 19 19 19 19 19 19 19 19 19 19 19 19 20 21 21 21 21 20 20 20 19 18 18 18 19 20 20 21 21 21 21 21 21 21 21 21 21
9 9 10 12 12 12 11 10 11 12 14 15 14 14 16 16 17 17 18 18 18 19 18 19 20 21 22 24 23 21 19 18 19 19 18 18 17 16 16 16 15 15 15 15 16 16 17 16 17 18 18 18 19 19 20 20 19 19 20 19 21 22 22 22 22 21 21 21 20 19 18 17 18 19 20 20 20 21 21 21 21 22 22 22 22
10 10 11 11 12 11 10 10 11 12 13 15 14 14 15 17 18 19 18 17 18 18 18 18 20 21 21 22 24 23 20 18 19 20 20 19 18 17 17 17 16 15 16 15 15 16 16 15 15 17 18 18 18 19 20 21 19 20 21 21 22 23 23 23 23 23 22 21 21 20 19 19 18 18 19 20 20 21 21 21 21 22 22 23 23
11 11 11 11 11 11 10 9 10 12 13 14 14 14 15 17 18 19 17 16 17 18 17 18 20 21 21 21 25 26 23 20 19 20 20 20 19 18 18 17 16 15 15 15 15 15 15 16 16 16 16 18 18 18 19 20 20 21 23 23 24 24 23 23 24 24 23 22 22 21 20 20 19 19 20 21 21 21 21 21 21 22 22 22 22
11 11 11 11 11 11 10 10 10 12 12 13 13 14 15 16 18 18 16 15 17 17 16 17 19 21 20 20 25 27 25 22 20 20 20 21 21 20 19 18 17 17 15 14 14 14 13 15 17 16 16 17 18 18 18 18 20 21 21 22 24 24 24 24 24 25 25 23 23 23 22 21 20 20 21 21 22 22 21 21 21 21 21 21 22
11 11 11 11 12 12 11 11 11 12 12 13 13 13 14 15 16 16 15 14 15 16 16 16 18 19 19 20 23 26 25 24 22 20 20 21 22 21 20 19 18 18 16 14 14 15 13 13 15 15 15 16 16 17 17 17 18 20 20 20 22 23 25 26 24 25 26 26 25 24 23 22 21 21 21 22 23 23 22 22 21 21 21 21 21
13 12 11 11 12 12 12 12 12 12 12 12 13 14 14 15 15 15 15 15 15 15 15 15 16 18 19 20 22 24 25 24 22 21 21 22 23 22 22 21 20 19 17 16 17 17 16 14 14 14 15 15 15 16 16 15 16 18 19 20 20 21 25 26 25 26 27 27 27 26 25 24 23 22 22 22 23 23 23 22 21 21 21 21 21
15 14 12 12 12 12 12 13 13 14 13 13 13 14 14 14 14 15 15 16 16 16 15 15 15 17 19 21 22 24 24 23 22 22 22 23 24 23 22 22 22 21 19 19 19 19 18 17 16 15 14 14 14 15 16 15 15 16 17 18 20 20 21 22 23 26 28 28 28 27 27 26 25 24 24 23 23 23 23 22 21 21 21 21 21
16 15 14 14 13 12 12 13 14 14 15 14 14 14 14 14 14 14 15 16 17 16 16 16 16 18 20 22 23 23 23 24 25 24 24 25 24 21 22 23 23 23 22 21 20 20 19 18 17 17 16 16 15 14 15 16 16 16 15 16 19 19 19 20 21 23 26 28 29 28 28 28 27 26 25 24 24 24 23 23 22 22 21 21 22
17 16 17 17 16 14 13 13 14 14 15 15 14 14 15 15 15 15 15 15 16 15 16 17 17 19 21 23 23 23 24 26 25 25 27 27 25 23 23 24 24 24 23 22 21 21 20 19 18 18 18 18 18 17 16 16 17 17 17 18 20 18 18 20 20 20 23 26 28 29 28 28 28 27 26 25 25 25 24 24 23 23 22 22 23
18 18 18 18 18 16 14 13 14 14 15 15 14 14 15 15 15 15 15 15 16 16 16 17 18 20 23 24 23 23 24 24 22 23 27 30 29 28 27 25 25 25 25 24 23 21 21 20 19 18 17 17 19 22 21 18 17 17 19 22 22 20 20 21 19 20 22 23 25 28 28 28 29 29 27 26 25 25 24 24 24 24 24 23 23
18 18 19 19 18 17 17 16 15 15 15 15 15 14 14 15 15 16 15 15 16 16 17 17 18 21 23 23 23 23 24 25 24 23 25 27 29 31 30 29 29 27 26 25 25 23 22 22 21 19 18 18 20 24 23 20 20 20 20 23 24 22 21 21 20 21 21 22 24 26 28 29 29 29 29 28 26 26 25 24 24 24 24 24 24
17 17 18 19 19 17 17 17 17 16 15 15 16 16 15 14 15 16 16 16 16 16 17 19 19 20 21 21 21 22 23 25 25 24 24 26 28 30 32 32 31 30 27 23 23 23 22 22 21 20 20 20 20 23 24 23 24 23 22 23 24 25 24 21 20 20 19 21 24 25 27 29 29 30 30 29 28 27 26 26 25 25 25 25 25
16 16 17 18 19 19 18 17 17 17 16 15 15 17 16 14 13 15 16 17 17 17 18 20 20 21 21 20 20 20 22 23 24 25 27 29 30 32 33 32 32 33 31 26 23 24 23 22 22 21 21 21 20 22 26 26 25 25 26 23 20 22 25 23 21 19 17 19 20 22 25 27 28 29 29 29 30 29 28 28 27 27 27 27 27
17 17 17 17 18 19 19 18 17 17 17 16 14 16 16 14 13 14 15 16 17 18 19 20 21 21 22 21 20 20 21 22 23 24 27 29 30 32 32 31 31 33 34 32 29 27 26 24 22 21 21 21 21 22 24 27 28 27 27 25 21 21 23 23 23 22 20 19 18 19 21 23 25 27 28 29 30 30 30 30 30 30 29 29 29
17 18 18 17 18 18 19 19 19 17 17 15 14 15 17 17 16 17 16 15 16 18 20 21 21 22 22 21 22 22 23 24 25 25 25 26 28 31 31 31 30 29 30 33 32 29 27 23 21 20 21 22 22 21 22 27 32 30 27 26 26 25 25 25 26 26 25 23 21 19 19 18 20 23 26 28 29 30 31 31 32 32 31 30 30
19 19 19 18 18 19 20 20 19 19 17 15 15 16 17 18 18 18 18 17 17 17 19 21 22 22 22 21 22 24 24 25 27 27 26 25 26 29 30 30 30 29 28 30 31 29 28 27 24 22 22 25 25 22 22 26 29 30 29 29 28 28 27 27 27 26 23 22 23 22 20 18 18 18 21 24 26 27 29 31 32 32 31 29 29
20 20 20 19 19 21 22 21 20 19 18 16 17 18 18 18 18 18 18 18 18 18 18 20 21 22 23 23 24 24 22 24 26 26 26 27 26 26 27 28 29 30 30 29 28 27 28 29 27 24 25 29 29 25 24 23 24 26 28 28 28 29 29 28 27 26 24 22 23 25 24 22 21 20 21 24 24 23 26 29 31 31 30 29 28
21 21 20 20 20 21 22 22 21 20 19 19 19 19 18 18 18 18 19 18 19 19 19 19 19 20 21 22 23 24 22 23 25 24 24 25 24 23 23 23 25 28 31 31 29 29 28 28 28 28 30 32 31 28 26 25 24 26 24 22 24 27 29 29 30 30 28 24 21 23 26 26 25 24 26 28 28 26 25 26 27 28 28 28 27
22 22 21 21 21 21 21 21 21 21 20 19 19 19 19 18 18 19 19 19 19 20 20 20 18 18 20 19 20 23 23 22 23 24 23 22 22 21 19 20 22 24 27 29 31 32 32 29 30 32 32 32 32 32 31 29 27 26 21 17 20 26 29 30 31 30 29 25 21 20 25 29 27 26 29 30 29 29 28 25 26 28 28 27 26
22 22 22 22 21 20 20 20 21 22 21 19 19 19 18 19 19 19 19 19 19 19 21 21 19 18 19 18 18 20 20 21 23 24 22 20 20 21 21 23 24 22 23 25 28 30 32 32 32 33 33 33 34 33 33 32 31 30 27 20 18 22 25 25 27 28 28 28 24 22 26 30 27 26 31 32 29 29 29 27 27 28 29 27 26
21 22 23 23 22 20 19 19 20 21 21 21 21 19 18 18 19 19 19 19 19 19 19 20 20 20 19 18 17 18 19 20 21 21 19 19 21 21 22 24 23 20 21 24 26 27 30 31 32 32 32 32 33 33 32 30 30 31 33 30 25 25 27 27 29 31 31 29 26 25 29 32 28 26 29 30 28 28 28 27 26 28 31 30 27
21 22 23 24 23 21 19 19 19 19 19 20 22 21 18 18 19 19 19 18 19 19 19 19 20 20 19 18 17 18 18 20 19 17 15 17 20 20 22 23 22 21 24 26 25 25 26 28 29 30 31 31 31 32 31 30 28 28 30 30 28 28 30 31 31 33 33 32 29 28 30 32 30 27 27 26 26 28 29 27 26 27 30 30 28
21 22 22 22 22 21 20 19 19 19 19 20 22 22 19 17 18 18 18 18 18 19 19 19 19 20 19 18 18 18 18 19 20 17 14 14 17 19 21 22 23 24 27 27 24 24 25 26 28 29 29 30 30 31 31 31 30 29 29 29 28 28 28 30 30 30 31 30 28 27 29 31 30 28 27 26 26 28 28 26 25 27 28 28 29
21 21 21 20 20 20 20 19 18 19 19 19 20 21 20 18 18 17 17 18 19 19 19 19 19 20 20 19 19 19 18 17 18 18 16 15 17 19 19 20 22 24 24 22 21 23 24 25 26 27 28 29 29 30 31 32 32 32 31 31 31 31 31 31 31 30 28 27 25 23 25 28 29 28 27 27 27 27 26 23 23 25 26 26 28
20 20 19 19 19 19 18 18 17 17 17 17 17 19 20 20 18 17 17 18 19 19 19 20 20 20 20 19 19 19 18 17 16 17 17 16 16 18 19 20 22 23 22 20 19 22 23 23 24 26 27 28 29 30 31 31 32 33 33 32 32 33 33 31 31 31 29 28 26 24 25 27 29 28 27 27 28 28 28 27 26 26 23 22 24
Wind_Direction
273 272 272 274 277 279 281 282 281 280 279 276 268 258 251 251 252 248 249 260 264 264 264 266 274 277 274 274 269 262 253 240 243 257 255 251 253 250 238 232 243 242 231 215 207 212 217 219 212 205 201 196 195 192 188 191 187 186 192 195 197 198 197 196 196 195 195 200 202 201 203 205 208 210 208 211 214 214 214 214 216 219 222 224 222
276 276 275 274 276 279 280 281 281 281 280 278 275 270 263 260 260 254 247 251 257 262 266 266 271 272 268 269 261 262 263 241 224 244 250 247 247 247 238 225 236 245 237 223 208 209 212 218 217 207 207 205 202 198 191 193 192 189 190 191 194 194 192 192 196 198 196 198 198 198 202 203 204 205 205 208 211 211 212 213 216 219 221 222 221
278 278 277 274 273 276 278 277 276 276 279 279 275 272 272 272 270 267 261 259 257 255 258 258 260 263 260 258 254 257 269 258 223 232 242 242 242 243 240 226 227 241 242 232 214 210 208 214 218 211 210 209 205 202 197 195 192 190 188 187 190 189 189 194 198 200 198 196 196 198 200 200 202 206 208 211 212 212 214 214 214 216 218 219 219
276 275 275 274 274 274 274 274 272 270 273 273 270 269 273 275 275 272 268 267 265 258 258 257 249 253 254 251 249 245 257 258 229 227 239 237 239 239 239 232 224 230 241 239 224 214 210 211 214 212 211 209 207 204 200 199 194 193 190 188 190 187 186 193 197 197 195 193 193 196 198 200 203 208 215 220 221 220 217 215 213 214 216 218 219
273 272 272 273 274 274 272 271 270 269 270 268 267 267 269 272 274 273 268 267 267 264 265 262 250 248 253 249 244 239 250 259 244 236 241 238 240 238 235 233 226 224 233 239 233 223 215 213 213 212 212 210 209 207 201 200 198 197 193 189 189 185 181 182 182 183 185 188 192 197 198 199 201 205 215 228 229 226 222 216 213 214 216 219 220
270 269 270 271 272 272 271 270 268 268 268 266 266 264 265 269 269 270 270 268 267 268 265 261 253 242 242 241 238 237 243 250 246 242 242 239 240 237 232 228 225 225 226 229 230 227 222 219 217 214 212 210 209 208 205 202 200 200 195 191 190 185 180 176 169 169 177 185 191 194 195 194 196 200 208 224 225 220 217 213 212 215 216 218 218
268 268 269 270 270 271 271 268 266 266 263 260 260 259 263 268 267 267 271 272 270 270 265 256 249 241 240 239 233 233 236 237 237 239 241 241 238 235 232 226 222 225 225 223 224 223 223 225 225 219 213 210 210 208 208 207 204 204 197 191 193 189 185 183 178 173 178 185 189 191 193 195 199 203 206 206 202 202 204 208 211 214 213 213 213
271 272 272 270 269 271 272 268 263 262 260 258 256 256 260 263 265 268 271 273 269 267 266 255 248 247 247 243 233 231 235 234 235 237 240 240 238 233 231 226 219 220 220 221 225 220 218 225 229 228 218 212 211 209 207 207 208 208 202 194 195 194 191 190 191 189 188 191 193 196 198 201 204 206 207 201 186 187 194 204 209 211 212 213 215
272 272 272 271 270 269 269 267 264 263 262 258 255 257 260 261 263 267 269 270 264 259 258 252 249 247 245 244 236 234 236 236 235 236 236 237 235 231 229 227 221 221 218 218 226 225 220 221 224 229 227 218 213 209 207 204 204 207 204 201 197 196 196 195 197 199 199 200 202 203 204 207 209 210 210 204 196 190 190 197 200 204 208 211 216
271 269 269 273 273 269 268 268 265 263 263 260 259 259 260 262 266 266 266 268 266 258 244 239 246 241 235 239 236 234 235 236 235 233 232 232 232 229 226 224 222 222 219 216 223 227 227 222 218 223 223 220 216 210 207 203 202 204 204 204 200 199 201 201 202 202 202 203 204 206 207 210 211 211 211 208 207 203 199 199 198 200 201 203 207
272 268 267 271 272 269 267 265 263 263 261 258 259 261 261 263 267 265 262 263 261 255 237 225 233 235 232 235 233 232 232 232 233 230 231 231 229 228 225 222 219 219 218 217 218 224 231 227 220 219 215 212 214 212 209 204 202 201 201 203 202 200 202 204 204 202 199 197 198 200 201 205 208 210 211 212 212 210 211 210 208 209 210 209 208
273 269 266 266 265 265 262 257 257 257 254 254 258 263 264 263 263 260 256 254 248 244 234 219 227 235 234 236 233 231 229 229 231 230 230 227 225 225 223 220 218 217 218 218 218 220 229 232 224 221 216 207 206 212 212 208 205 201 200 201 201 200 198 201 202 199 196 193 191 191 192 195 200 206 211 214 216 215 216 216 215 217 218 218 217
274 269 265 262 260 261 258 253 252 252 251 253 256 260 262 258 255 251 249 249 241 236 229 217 224 233 233 236 236 231 228 228 230 228 226 223 221 221 220 219 218 217 217 217 219 218 223 231 226 221 220 210 202 207 213 213 210 205 202 199 198 199 197 197 198 197 197 195 193 191 191 193 196 203 208 211 215 216 217 219 220 221 222 222 222
271 266 263 261 259 260 259 253 251 253 253 253 253 253 252 249 248 248 249 248 238 231 226 214 218 230 232 233 233 231 229 229 230 227 222 219 218 217 217 217 216 216 216 217 220 218 218 226 227 221 220 216 207 205 209 214 213 209 207 203 201 201 199 200 200 200 200 199 199 198 199 201 202 205 208 209 211 212 213 216 218 221 223 224 225
270 269 268 266 263 264 262 255 251 250 250 252 251 247 245 246 249 249 249 250 239 232 230 218 215 225 230 231 230 228 226 225 225 223 218 215 215 214 215 216 215 214 215 218 220 219 217 220 225 221 215 217 215 210 208 210 210 208 208 208 207 207 205 205 206 206 207 207 207 207 211 214 213 213 213 212 212 210 211 212 214 217 219 221 223
279 280 277 274 269 264 262 258 253 249 249 251 249 244 243 246 248 248 246 246 242 238 236 226 217 217 222 225 226 226 225 219 216 216 213 211 212 213 213 214 215 214 216 219 220 220 219 217 220 220 214 213 216 216 214 212 210 206 207 210 210 212 213 212 212 212 213 214 215 217 222 224 224 223 223 222 219 215 213 213 215 217 219 220 221
283 283 279 275 270 266 262 258 255 254 251 249 246 244 246 249 250 249 245 243 244 244 238 228 221 220 222 222 222 229 232 220 210 209 208 207 209 211 212 212 212 214 216 219 221 221 220 216 216 219 216 211 213 216 218 219 217 210 208 211 210 211 214 216 217 217 218 219 220 222 225 226 228 229 229 229 227 224 222 222 223 223 223 223 223
281 282 280 275 268 264 263 261 260 260 257 250 246 244 244 246 245 243 244 244 243 243 238 230 225 223 226 229 227 235 242 224 209 204 203 207 208 208 211 212 210 211 214 216 219 219 218 215 214 218 219 215 214 216 219 223 223 218 214 214 213 212 213 215 218 220 221 222 222 224 225 225 227 228 229 229 227 226 226 227 228 228 228 227 228
279 280 279 278 272 265 261 260 258 257 257 252 247 243 242 241 239 239 245 246 242 241 239 235 232 226 227 234 237 241 245 229 216 206 200 203 206 207 210 211 210 211 213 215 216 217 216 215 214 216 219 219 217 217 219 223 224 224 222 219 217 215 215 217 218 220 221 222 224 225 227 227 226 226 225 223 221 220 221 222 225 228 229 231 234
275 278 281 281 279 274 265 259 258 258 259 256 249 246 246 243 238 239 243 243 242 243 240 235 235 230 224 229 235 238 239 233 227 218 206 202 203 206 208 209 210 212 214 215 216 217 216 216 216 215 217 220 221 221 221 223 223 222 223 225 223 221 220 221 220 221 222 222 223 224 225 224 223 222 220 219 219 219 218 220 223 226 228 231 236
283 282 282 281 278 276 271 264 260 259 259 257 253 252 250 244 240 241 245 246 245 246 243 236 234 231 226 227 230 233 234 232 229 224 217 210 204 203 205 205 208 212 214 215 216 217 218 217 217 216 215 217 221 224 224 226 226 222 221 224 226 226 225 225 224 223 223 224 224 224 223 222 221 221 221 222 223 224 225 225 226 227 229 231 234
293 287 282 280 275 271 270 267 262 256 257 255 251 253 253 246 242 242 244 247 249 251 250 242 232 228 227 226 228 230 229 226 225 221 217 214 209 206 205 204 207 210 212 214 215 216 217 218 219 218 217 217 220 224 226 228 229 228 226 222 221 226 227 227 228 227 227 227 226 226 225 225 226 226 227 228 230 231 232 232 231 231 231 232 234
304 301 295 289 282 273 267 268 267 261 262 262 255 251 249 247 245 244 245 247 249 253 255 247 233 226 222 218 222 228 227 222 221 219 215 213 213 212 210 208 210 212 213 215 217 216 217 218 219 220 219 219 220 222 226 230 233 233 233 228 222 223 224 224 226 228 229 230 230 230 230 229 230 230 231 232 233 234 235 235 235 234 234 234 235
313 312 307 299 292 287 278 273 271 266 266 266 261 254 249 246 245 244 247 251 249 248 251 248 238 229 222 217 221 224 224 223 220 218 216 214 213 216 215 211 213 216 215 214 216 217 218 218 219 220 220 220 220 221 225 229 233 236 236 234 228 225 224 223 223 225 226 228 230 232 233 233 233 233 233 233 234 235 235 236 236 236 237 237 238
313 307 302 294 289 287 281 275 274 273 272 269 263 259 255 251 249 248 249 254 254 249 248 247 243 236 226 221 225 224 223 224 222 219 218 215 214 218 218 216 218 218 214 211 213 216 218 219 220 220 220 221 220 221 223 225 229 234 233 233 233 228 227 226 225 225 224 224 227 229 232 233 234 234 234 233 235 235 236 237 237 238 239 239 240
313 303 297 294 295 295 289 281 277 274 274 272 265 259 259 255 253 254 252 255 258 255 252 248 245 241 230 223 224 224 223 224 222 220 217 214 214 215 215 218 223 222 217 214 214 216 218 219 219 220 220 221 221 220 223 223 226 231 229 230 235 232 229 230 228 226 226 224 224 226 228 231 232 233 232 233 233 234 235 237 238 239 240 241 242
313 307 303 304 308 309 305 297 288 278 272 272 267 261 263 261 256 255 254 255 257 256 255 251 245 242 236 228 225 223 223 225 223 221 219 216 216 215 214 216 221 224 222 218 218 220 220 220 220 221 220 220 220 219 222 222 224 231 229 225 233 235 230 229 229 226 226 226 226 228 229 231 232 232 231 231 232 233 234 236 237 240 241 242 243
314 310 309 310 311 311 307 299 292 286 278 273 268 262 261 261 260 259 257 256 256 256 254 250 245 242 238 233 228 225 224 227 227 224 221 220 220 219 217 217 220 225 224 223 224 224 223 221 221 221 219 220 219 218 223 225 223 232 233 224 227 233 230 228 228 228 228 229 230 230 231 231 231 232 231 231 231 233 234 236 237 239 241 244 245
317 312 313 312 309 309 307 297 290 289 285 277 270 264 261 261 262 261 260 257 257 258 254 248 244 240 235 231 230 228 226 227 229 227 224 223 223 222 222 220 219 223 225 226 227 226 225 223 223 223 220 220 221 219 224 227 224 228 232 227 226 230 231 227 227 229 229 231 232 230 230 231 231 231 231 231 231 232 234 235 237 239 240 242 245
322 317 315 313 308 308 307 299 293 291 289 284 274 266 263 265 266 264 261 259 260 261 255 247 243 240 233 230 230 229 228 228 228 228 225 224 223 224 224 223 221 222 224 229 230 229 228 226 225 225 221 220 222 222 223 225 226 226 226 227 227 229 232 230 226 228 230 231 232 230 229 230 231 232 231 231 231 231 232 234 236 238 239 240 242
328 323 317 314 309 307 305 300 296 294 293 294 287 276 267 267 271 270 265 262 261 262 257 248 242 238 234 234 233 231 231 230 228 228 227 225 225 224 225 225 224 223 223 228 233 231 230 232 230 225 225 226 223 222 222 222 227 230 225 225 227 229 232 231 225 226 229 231 232 231 231 232 233 234 234 232 231 230 230 232 233 236 238 240 241
331 327 322 319 313 308 304 298 294 291 288 288 289 284 274 267 269 273 271 266 261 257 253 246 240 236 234 235 235 233 234 232 228 228 228 226 224 224 225 226 226 226 224 225 231 234 234 237 237 231 229 230 225 222 224 222 227 235 230 224 226 229 233 232 227 225 226 229 232 232 233 235 235 236 236 234 231 230 229 229 231 234 237 239 240
332 330 327 323 318 313 308 301 296 291 285 282 282 283 279 273 270 269 269 269 266 259 252 246 242 238 236 237 237 235 238 240 232 229 232 231 225 223 226 228 228 228 226 226 231 236 238 238 241 239 231 229 226 224 226 225 227 237 237 228 225 227 230 230 230 229 227 227 231 234 235 236 238 238 238 236 233 230 230 230 231 234 236 239 240
332 330 327 324 322 319 313 307 304 299 294 288 284 281 281 279 275 270 267 268 268 263 256 249 243 241 240 242 243 237 237 242 237 232 236 235 227 225 228 229 231 230 227 229 232 235 238 237 237 239 235 232 232 231 232 232 232 235 235 228 224 226 229 229 231 234 232 229 229 234 236 237 238 239 238 238 236 233 232 233 234 237 238 240 242
330 326 324 324 324 321 316 311 309 307 303 296 288 282 279 278 277 272 267 265 265 263 259 253 246 245 245 246 247 242 235 238 238 236 240 240 233 229 228 227 230 233 231 231 232 233 235 236 235 237 238 235 234 235 234 233 235 237 235 228 222 223 228 228 230 234 238 237 232 232 236 236 237 239 239 239 238 236 236 236 238 240 241 242 242
324 323 322 322 322 321 317 312 309 308 307 303 296 286 279 277 276 274 270 267 265 260 257 254 250 250 252 251 251 247 240 236 236 239 244 245 240 236 234 230 230 233 233 231 232 233 234 236 236 236 238 238 238 241 237 232 235 238 239 237 230 228 229 229 231 233 238 244 240 233 233 235 236 238 240 240 239 238 237 238 239 241 242 242 240
319 320 319 319 319 319 317 314 311 308 306 304 301 295 286 278 273 271 271 270 269 265 259 255 251 251 255 257 254 251 246 239 236 238 243 245 244 241 240 239 236 237 237 233 231 234 235 236 237 236 239 243 249 250 244 236 237 238 241 243 238 235 235 234 237 236 236 243 245 239 234 234 236 237 238 239 239 239 239 238 239 241 241 240 239
317 316 315 316 317 315 314 313 311 309 306 302 301 301 297 290 281 274 270 266 266 267 265 260 255 252 256 259 257 253 250 245 240 239 239 243 246 246 243 240 238 239 241 235 231 234 235 235 237 239 242 244 249 254 250 245 244 243 243 246 242 237 236 237 238 238 236 242 248 246 238 233 234 236 237 238 238 239 240 240 241 242 242 242 241
316 314 313 314 315 313 312 312 310 309 307 303 301 300 299 297 291 283 277 271 266 266 269 269 265 259 257 256 257 254 251 249 246 243 243 244 246 247 246 244 241 242 243 240 235 234 235 236 238 239 243 242 243 251 255 255 254 249 247 249 247 239 236 237 240 238 238 244 248 250 246 240 237 237 238 239 239 240 242 243 244 244 245 245 245
316 316 313 312 311 310 310 310 309 307 304 303 302 297 295 297 293 288 284 279 273 268 268 271 271 267 262 258 257 255 253 254 251 246 247 248 246 246 246 244 242 242 242 241 239 234 232 236 240 239 241 242 241 245 251 254 254 251 250 250 249 244 238 237 241 241 239 242 243 245 248 248 243 240 239 239 240 242 243 244 245 245 246 247 248
316 315 314 312 310 308 307 306 306 305 303 301 297 292 292 295 295 295 292 286 281 275 269 269 271 270 267 262 259 256 254 256 254 250 250 251 249 248 246 241 238 237 237 239 241 238 232 231 237 242 243 242 241 240 242 248 253 253 252 250 248 249 247 244 246 248 245 244 245 245 245 246 244 242 242 241 241 242 243 244 244 245 246 248 249
314 313 313 312 309 307 305 304 303 303 302 299 294 293 293 291 291 293 293 290 287 283 276 272 271 271 270 267 264 263 262 261 259 257 256 254 252 251 248 242 238 237 237 237 240 242 241 240 242 247 246 243 243 244 245 252 257 255 253 252 248 247 248 247 248 249 248 244 244 244 244 245 245 245 245 244 243 245 246 246 245 245 247 250 251
314 314 313 310 306 304 304 303 301 301 300 297 295 296 295 292 289 287 288 290 289 287 282 278 275 274 272 270 268 266 266 267 267 264 261 258 257 256 253 249 245 243 242 239 238 240 244 245 244 245 247 248 250 250 251 254 254 250 248 249 248 245 243 244 246 249 251 249 247 249 250 249 251 249 247 247 246 247 248 247 247 247 247 249 251
314 314 312 309 305 303 303 303 301 300 298 296 296 296 296 294 290 286 285 287 288 288 286 284 281 279 276 274 272 269 266 268 269 266 263 263 262 260 260 259 255 249 246 246 246 247 247 246 245 245 248 252 252 252 253 253 251 251 248 241 241 243 242 245 251 253 254 255 257 260 259 256 258 258 254 253 253 250 248 247 249 250 249 248 249
313 312 311 310 307 305 304 302 301 299 298 296 295 295 296 294 291 288 286 284 284 285 286 286 282 278 277 277 279 280 278 274 270 267 266 268 267 264 263 262 259 255 251 249 250 251 250 249 248 249 250 252 253 254 255 255 252 252 247 235 238 247 248 250 253 253 253 257 265 271 265 261 263 262 258 258 258 256 252 247 248 252 252 251 249
312 312 311 311 309 308 306 304 303 303 302 300 296 294 295 294 290 287 286 285 283 282 284 285 283 280 281 279 277 281 282 277 273 271 269 268 266 263 259 257 254 254 255 253 251 249 248 246 248 251 252 253 255 257 258 258 256 252 249 248 251 255 253 250 250 251 254 259 264 266 264 262 263 260 259 260 261 258 254 249 247 251 254 255 253
310 310 310 310 310 309 307 305 304 305 305 303 301 300 298 295 291 289 288 287 284 282 281 282 282 282 284 283 278 277 277 273 270 270 267 264 264 261 258 255 249 245 250 254 253 250 249 248 249 253 255 256 258 260 260 261 260 257 257 258 259 260 259 256 254 255 258 259 258 259 263 265 263 258 258 259 257 255 254 249 246 248 253 256 257
308 308 308 308 308 308 307 305 304 304 304 303 303 304 304 300 294 291 290 288 285 281 278 277 279 280 281 283 281 280 282 282 280 276 269 265 265 262 260 260 257 253 254 256 254 253 252 252 254 256 257 258 259 260 261 261 259 259 260 260 260 261 262 260 258 258 259 259 257 257 259 263 262 258 257 258 256 256 258 256 247 245 251 256 259
306 306 306 305 305 307 306 305 304 302 302 304 304 305 308 306 300 294 292 290 286 282 279 277 277 278 278 280 280 280 284 287 287 286 279 270 267 264 261 261 260 257 257 258 258 257 255 255 256 258 258 259 258 257 257 258 257 257 257 257 257 259 261 261 261 263 262 259 258 256 254 258 262 261 258 258 257 256 259 261 253 247 247 251 258
305 303 303 302 302 305 306 306 305 302 303 307 307 308 311 311 306 300 294 290 286 283 282 279 277 278 278 278 279 279 281 283 285 288 284 272 267 265 263 261 259 258 258 257 257 258 258 256 256 257 258 259 258 256 255 255 255 254 253 253 254 256 257 258 261 264 262 257 254 249 247 254 261 260 255 256 255 252 252 256 255 252 250 252 261
303 301 301 301 302 305 306 307 307 306 306 309 308 309 314 316 313 306 297 291 289 287 285 283 279 277 276 277 278 279 279 278 277 280 283 278 270 265 262 259 259 260 260 255 251 254 257 257 256 258 260 260 259 259 258 257 254 252 251 251 252 251 251 252 255 257 256 255 253 247 244 251 255 251 248 251 253 252 250 250 252 255 258 260 265